#timestamp,LO_Frequency,Hit,StdDev 
1524484815.7,286046997.7,N
1524484835.6,286046997.3,N
1524484855.4,286046994.9,N
1524484875.2,286046995.4,N
1524484895.1,286047011.9,Y
1524484896.0,286046995.8,P
1524484915.8,286046995.0,N
1524484935.7,286046996.8,N
1524484955.5,286046995.0,N
1524484975.3,286046996.8,N
1524484995.2,286046999.3,N
1524485015.0,286046997.6,N
1524485015.9,286046997.6,N
1524485035.8,286046995.3,N
1524485055.6,286046997.0,N
1524485075.4,286046997.0,N
1524485095.3,286046998.0,N
1524485115.1,286046997.5,N
1524485135.8,286046995.1,Y
1524485155.7,286046996.9,P
1524485175.5,286046999.6,P
1524485195.4,286046996.9,N
1524485215.2,286046996.9,N
1524485235.0,286046997.4,N
1524485235.9,286046997.4,N
1524485255.8,286046997.3,Y
1524485275.6,286046998.2,P
1524485295.5,286046998.6,P
1524485315.3,286047000.7,N
1524485335.1,286047001.2,N
1524485355.9,286047000.0,N
1524485375.7,286047001.2,N
1524485395.5,286047002.8,N
1524485415.4,286046999.9,N
1524485435.2,286046999.9,N
1524485455.1,286046999.9,N
1524485456.0,286046999.9,N
1524485475.8,286046999.7,N
1524485495.6,286047000.2,N
1524485515.5,286047001.5,N
1524485535.3,286047003.1,N
1524485555.1,286047007.5,Y
1524485575.9,286047006.1,P
1524485595.7,286047008.3,N
1524485615.6,286047007.9,N
1524485635.4,286047004.9,N
1524485655.2,286047004.5,N
1524485675.1,286047005.9,N
1524485676.0,286047005.9,N
1524485695.8,286047005.5,N
1524485715.7,286047007.0,Y
1524485735.5,286047000.6,P
1524485755.3,286046998.8,N
1524485775.2,286046999.3,N
1524485795.9,286047002.3,N
1524485815.7,286047002.8,N
1524485835.6,286047001.2,N
1524485855.4,286046998.1,N
1524485875.3,286047002.3,N
1524485895.1,286047000.2,N
1524485896.0,286047000.2,N
1524485915.8,286046998.7,N
1524485935.7,286046996.5,N
1524485955.5,286046997.0,N
1524485975.3,286046999.5,N
1524485995.2,286046999.0,N
1524486015.0,286046997.0,N
1524486015.9,286046997.0,N
1524486035.8,286046997.1,N
1524486055.6,286046997.7,N
1524486075.4,286046996.5,N
1524486095.3,286046998.6,N
1524486115.1,286046998.9,N
1524486135.8,286046998.5,N
1524486155.7,286047000.2,N
1524486175.5,286047002.5,N
1524486195.4,286047002.6,N
1524486215.2,286047002.4,N
1524486235.0,286047001.5,N
1524486235.9,286047001.5,N
1524486255.8,286047000.6,N
1524486275.6,286047000.4,N
1524486295.4,286046998.1,N
1524486315.3,286047001.1,N
1524486335.1,286046998.1,N
1524486355.9,286047000.1,N
1524486375.7,286047001.5,N
1524486395.5,286046998.1,N
1524486415.4,286047000.9,N
1524486435.2,286047000.4,N
1524486455.0,286046999.2,N
1524486456.0,286046999.2,N
1524486475.8,286046997.2,N
1524486495.6,286046998.4,N
1524486515.5,286046998.6,N
1524486535.3,286046999.6,N
1524486555.1,286046997.4,N
1524486575.9,286046998.6,N
1524486595.7,286046999.0,N
1524486615.6,286046996.9,N
1524486635.4,286046997.1,N
1524486655.2,286046997.7,N
1524486675.1,286046996.7,N
1524486676.0,286046996.7,N
1524486695.8,286046998.9,N
1524486715.6,286046998.7,N
1524486735.5,286047000.2,N
1524486755.3,286046999.1,N
1524486775.2,286046998.8,N
1524486795.9,286046996.5,N
1524486815.7,286046999.1,N
1524486835.6,286046999.5,N
1524486855.4,286046997.2,N
1524486875.2,286046999.3,N
1524486895.1,286047001.2,N
1524486896.0,286047001.2,N
1524486915.8,286047002.2,N
1524486935.7,286047000.1,N
1524486955.5,286047001.0,N
1524486975.3,286047000.8,N
1524486995.2,286046998.4,N
1524487015.0,286046997.0,N
1524487015.9,286046997.0,N
1524487035.8,286046997.1,N
1524487055.6,286046997.1,N
1524487075.4,286046999.2,N
1524487095.3,286047001.1,N
1524487115.1,286046998.8,N
1524487135.8,286046999.5,N
1524487155.7,286046998.7,N
1524487175.5,286046999.2,N
1524487195.4,286047001.1,N
1524487215.2,286047000.4,N
1524487235.0,286047000.8,N
1524487235.9,286047000.8,N
1524487255.8,286046998.7,N
1524487275.6,286046999.4,N
1524487295.4,286046998.8,N
1524487315.3,286046998.9,N
1524487335.1,286047000.3,N
1524487355.9,286047000.4,N
1524487375.7,286046999.3,N
1524487395.5,286046998.9,N
1524487415.4,286046999.0,N
1524487435.2,286047000.9,N
1524487455.0,286047002.5,N
1524487455.9,286047002.5,N
1524487475.8,286047002.8,N
1524487495.6,286047003.9,N
1524487515.5,286047000.0,N
1524487535.3,286046999.5,N
1524487555.1,286046998.5,N
1524487575.9,286047000.3,N
1524487595.7,286047002.4,N
1524487615.5,286047001.8,N
1524487635.4,286047001.3,N
1524487655.2,286047002.4,N
1524487675.1,286047001.9,N
1524487676.0,286047001.9,N
1524487695.8,286047004.4,N
1524487715.6,286047002.7,N
1524487735.5,286047002.7,N
1524487755.3,286047001.9,N
1524487775.1,286047002.2,N
1524487795.9,286046998.1,N
1524487815.7,286047000.3,N
1524487835.6,286047002.0,N
1524487855.4,286047001.5,N
1524487875.2,286047004.3,N
1524487895.1,286047002.1,N
1524487896.0,286047002.1,N
1524487915.8,286047001.4,N
1524487935.7,286047004.1,N
1524487955.5,286047003.5,N
1524487975.3,286047003.2,N
1524487995.2,286047002.6,N
1524488015.9,286047002.0,N
1524488035.7,286046999.9,N
1524488055.6,286047002.2,N
1524488075.4,286047004.1,N
1524488095.3,286047002.4,N
1524488115.1,286047000.0,N
1524488116.0,286047000.0,N
1524488135.8,286047002.8,N
1524488155.7,286047002.6,N
1524488175.5,286047002.0,N
1524488195.3,286046999.9,N
1524488215.2,286047000.7,N
1524488235.0,286047000.9,N
1524488235.9,286047000.9,N
1524488255.8,286047002.1,N
1524488275.6,286047001.0,N
1524488295.4,286047000.8,N
1524488315.3,286047000.8,N
1524488335.1,286047000.6,N
1524488355.8,286046998.6,N
1524488375.7,286046998.2,N
1524488395.5,286047002.3,N
